Time,TemperatureF,DewpointF,PressureIn,WindDirection,WindDirectionDegrees,WindSpeedMPH,WindSpeedGustMPH,Humidity,HourlyPrecipIn,Conditions,Clouds,dailyrainin,SoftwareType,DateUTC
2013-11-18 00:12:00,44.0,40.0,29.87,WSW,251,5.0,10.0,86,0.00,,,0.19,,2013-11-18 06:12:00,
2013-11-18 00:22:00,43.0,39.0,29.88,SW,236,7.0,13.0,87,0.00,,,0.19,,2013-11-18 06:22:00,
2013-11-18 00:42:00,43.0,40.0,29.88,West,268,6.0,13.0,88,0.00,,,0.18,,2013-11-18 06:42:00,
2013-11-18 00:52:00,43.0,40.0,29.88,West,273,6.0,11.0,88,0.00,,,0.18,,2013-11-18 06:52:00,
2013-11-18 01:11:00,44.0,40.0,29.88,West,274,8.0,17.0,87,0.00,,,0.18,,2013-11-18 07:11:00,
2013-11-18 01:21:00,44.0,40.0,29.88,West,264,9.0,19.0,87,0.00,,,0.18,,2013-11-18 07:21:00,
2013-11-18 01:42:00,43.0,39.0,29.89,West,273,8.0,14.0,86,0.00,,,0.18,,2013-11-18 07:42:00,
2013-11-18 01:52:00,43.0,39.0,29.90,West,279,7.0,14.0,87,0.00,,,0.18,,2013-11-18 07:52:00,
2013-11-18 02:11:00,43.0,39.0,29.91,WSW,240,9.0,14.0,87,0.00,,,0.18,,2013-11-18 08:11:00,
2013-11-18 02:22:00,43.0,39.0,29.92,West,265,10.0,15.0,87,0.00,,,0.18,,2013-11-18 08:22:00,
2013-11-18 02:42:00,43.0,39.0,29.93,West,260,9.0,16.0,87,0.00,,,0.18,,2013-11-18 08:42:00,
2013-11-18 02:52:00,43.0,39.0,29.93,West,273,10.0,16.0,86,0.00,,,0.18,,2013-11-18 08:52:00,
2013-11-18 03:12:00,43.0,39.0,29.93,WNW,290,9.0,16.0,86,0.00,,,0.18,,2013-11-18 09:12:00,
2013-11-18 03:22:00,42.0,38.0,29.94,WNW,282,8.0,14.0,85,0.00,,,0.18,,2013-11-18 09:22:00,
2013-11-18 03:43:00,42.0,38.0,29.94,West,271,7.0,17.0,85,0.00,,,0.18,,2013-11-18 09:43:00,
2013-11-18 03:53:00,42.0,38.0,29.95,West,267,6.0,12.0,85,0.00,,,0.18,,2013-11-18 09:53:00,
2013-11-18 04:13:00,41.0,37.0,29.95,West,262,5.0,9.0,86,0.00,,,0.18,,2013-11-18 10:13:00,
2013-11-18 04:23:00,41.0,37.0,29.95,WSW,248,6.0,10.0,87,0.00,,,0.18,,2013-11-18 10:23:00,
2013-11-18 04:53:00,40.0,36.0,29.96,West,277,6.0,10.0,87,0.00,,,0.18,,2013-11-18 10:53:00,
2013-11-18 05:12:00,40.0,36.0,29.95,WSW,246,7.0,11.0,87,0.00,,,0.18,,2013-11-18 11:12:00,
2013-11-18 05:22:00,39.0,35.0,29.96,WNW,292,6.0,11.0,87,0.00,,,0.18,,2013-11-18 11:22:00,
2013-11-18 05:42:00,40.0,36.0,29.97,WNW,289,6.0,11.0,85,0.00,,,0.18,,2013-11-18 11:42:00,
2013-11-18 05:52:00,39.0,35.0,29.97,WSW,252,6.0,11.0,87,0.00,,,0.18,,2013-11-18 11:52:00,
2013-11-18 06:12:00,39.0,35.0,29.98,West,267,6.0,10.0,87,0.00,,,0.18,,2013-11-18 12:12:00,
2013-11-18 06:22:00,39.0,36.0,29.98,West,281,6.0,9.0,88,0.00,,,0.18,,2013-11-18 12:22:00,
2013-11-18 06:42:00,38.0,35.0,29.99,WNW,284,7.0,13.0,89,0.00,,,0.18,,2013-11-18 12:42:00,
2013-11-18 06:52:00,38.0,35.0,29.99,WSW,256,7.0,11.0,89,0.00,,,0.18,,2013-11-18 12:52:00,
2013-11-18 07:11:00,38.0,35.0,30.00,West,261,7.0,11.0,89,0.00,,,0.18,,2013-11-18 13:11:00,
2013-11-18 07:21:00,38.0,35.0,30.01,West,274,7.0,13.0,89,0.00,,,0.18,,2013-11-18 13:21:00,
2013-11-18 07:42:00,38.0,35.0,30.01,West,261,7.0,14.0,89,0.00,,,0.18,,2013-11-18 13:42:00,
2013-11-18 07:52:00,39.0,36.0,30.01,West,272,8.0,13.0,89,0.00,,,0.18,,2013-11-18 13:52:00,
2013-11-18 08:11:00,39.0,36.0,30.03,West,261,10.0,15.0,88,0.00,,,0.18,,2013-11-18 14:11:00,
2013-11-18 08:22:00,40.0,37.0,30.04,West,263,8.0,15.0,88,0.00,,,0.18,,2013-11-18 14:22:00,
2013-11-18 08:52:00,41.0,37.0,30.05,WNW,284,11.0,18.0,85,0.00,,,0.18,,2013-11-18 14:52:00,
2013-11-18 09:11:00,41.0,37.0,30.06,WNW,283,12.0,21.0,84,0.00,,,0.18,,2013-11-18 15:11:00,
2013-11-18 09:22:00,41.0,37.0,30.07,WNW,297,10.0,22.0,84,0.00,,,0.18,,2013-11-18 15:22:00,
2013-11-18 09:33:00,41.0,37.0,30.07,WNW,297,10.0,22.0,84,0.00,,,0.18,,2013-11-18 15:33:00,
2013-11-18 09:43:00,41.0,37.0,30.07,WNW,297,10.0,22.0,84,0.00,,,0.18,,2013-11-18 15:43:00,
2013-11-18 09:53:00,42.0,37.0,30.08,WNW,292,10.0,20.0,81,0.00,,,0.18,,2013-11-18 15:53:00,
2013-11-18 10:13:00,42.0,36.0,30.09,NW,310,11.0,22.0,79,0.00,,,0.18,,2013-11-18 16:13:00,
2013-11-18 10:23:00,42.0,36.0,30.10,NNW,334,13.0,19.0,78,0.00,,,0.18,,2013-11-18 16:23:00,
2013-11-18 10:43:00,43.0,36.0,30.10,WNW,299,12.0,20.0,75,0.00,,,0.18,,2013-11-18 16:43:00,
2013-11-18 10:52:00,44.0,36.0,30.11,WNW,294,12.0,23.0,72,0.00,,,0.18,,2013-11-18 16:52:00,
2013-11-18 11:12:00,44.0,36.0,30.11,NW,311,12.0,19.0,73,0.00,,,0.18,,2013-11-18 17:12:00,
2013-11-18 11:22:00,44.0,35.0,30.11,NW,318,12.0,20.0,70,0.00,,,0.18,,2013-11-18 17:22:00,
2013-11-18 11:43:00,45.0,35.0,30.11,NW,310,11.0,23.0,68,0.00,,,0.18,,2013-11-18 17:43:00,
2013-11-18 11:52:00,45.0,35.0,30.11,NW,306,10.0,21.0,67,0.00,,,0.18,,2013-11-18 17:52:00,
2013-11-18 12:12:00,46.0,35.0,30.11,WNW,299,12.0,20.0,66,0.00,,,0.18,,2013-11-18 18:12:00,
2013-11-18 12:23:00,46.0,35.0,30.12,WNW,303,10.0,20.0,65,0.00,,,0.18,,2013-11-18 18:23:00,
2013-11-18 12:42:00,46.0,34.0,30.13,West,279,11.0,18.0,62,0.00,,,0.16,,2013-11-18 18:42:00,
2013-11-18 12:52:00,47.0,35.0,30.13,West,279,13.0,24.0,62,0.00,,,0.16,,2013-11-18 18:52:00,
2013-11-18 13:11:00,47.0,34.0,30.13,WNW,288,13.0,24.0,61,0.00,,,0.16,,2013-11-18 19:11:00,
2013-11-18 13:21:00,47.0,34.0,30.14,WNW,285,13.0,28.0,60,0.00,,,0.16,,2013-11-18 19:21:00,
2013-11-18 13:42:00,47.0,33.0,30.14,WNW,298,14.0,24.0,59,0.00,,,0.11,,2013-11-18 19:42:00,
2013-11-18 14:11:00,48.0,35.0,30.14,West,281,12.0,19.0,60,0.00,,,0.11,,2013-11-18 20:11:00,
2013-11-18 14:22:00,47.0,32.0,30.15,WNW,288,15.0,25.0,56,0.00,,,0.11,,2013-11-18 20:22:00,
2013-11-18 14:42:00,47.0,33.0,30.15,WNW,294,13.0,22.0,59,0.00,,,0.00,,2013-11-18 20:42:00,
2013-11-18 14:52:00,47.0,33.0,30.16,NW,304,11.0,18.0,58,0.00,,,0.00,,2013-11-18 20:52:00,
2013-11-18 15:11:00,47.0,32.0,30.16,West,271,13.0,21.0,55,0.00,,,0.00,,2013-11-18 21:11:00,
2013-11-18 15:22:00,47.0,32.0,30.16,WNW,295,10.0,23.0,56,0.00,,,0.00,,2013-11-18 21:22:00,
2013-11-18 15:54:00,46.0,31.0,30.18,NW,316,12.0,21.0,55,0.00,,,0.00,,2013-11-18 21:54:00,
2013-11-18 16:13:00,46.0,32.0,30.18,West,275,10.0,19.0,57,0.00,,,0.00,,2013-11-18 22:13:00,
2013-11-18 16:22:00,45.0,31.0,30.18,WNW,302,9.0,15.0,58,0.00,,,0.00,,2013-11-18 22:22:00,
2013-11-18 16:43:00,45.0,32.0,30.19,NW,304,8.0,17.0,59,0.00,,,0.00,,2013-11-18 22:43:00,
2013-11-18 16:52:00,44.0,32.0,30.19,NW,306,6.0,10.0,63,0.00,,,0.00,,2013-11-18 22:52:00,
2013-11-18 17:12:00,43.0,31.0,30.20,WNW,296,5.0,12.0,63,0.00,,,0.00,,2013-11-18 23:12:00,
2013-11-18 17:21:00,42.0,30.0,30.20,WNW,303,5.0,11.0,63,0.00,,,0.00,,2013-11-18 23:21:00,
2013-11-18 17:42:00,41.0,30.0,30.21,WNW,294,3.0,8.0,64,0.00,,,0.00,,2013-11-18 23:42:00,
2013-11-18 17:52:00,41.0,30.0,30.21,WNW,294,3.0,8.0,64,0.00,,,0.00,,2013-11-18 23:52:00,
2013-11-18 18:11:00,39.0,30.0,30.21,WNW,291,4.0,8.0,69,0.00,,,0.00,,2013-11-19 00:11:00,
2013-11-18 18:21:00,39.0,30.0,30.22,WNW,291,5.0,8.0,69,0.00,,,0.00,,2013-11-19 00:21:00,
2013-11-18 18:42:00,39.0,30.0,30.22,WNW,302,4.0,8.0,69,0.00,,,0.00,,2013-11-19 00:42:00,
2013-11-18 18:52:00,38.0,29.0,30.23,NW,312,4.0,8.0,70,0.00,,,0.00,,2013-11-19 00:52:00,
2013-11-18 19:11:00,38.0,30.0,30.23,WNW,286,5.0,8.0,72,0.00,,,0.00,,2013-11-19 01:11:00,
2013-11-18 19:21:00,38.0,30.0,30.23,WNW,285,6.0,11.0,73,0.00,,,0.00,,2013-11-19 01:21:00,
2013-11-18 19:42:00,37.0,29.0,30.24,WNW,295,4.0,8.0,74,0.00,,,0.00,,2013-11-19 01:42:00,
2013-11-18 19:52:00,37.0,30.0,30.24,WNW,290,6.0,9.0,75,0.00,,,0.00,,2013-11-19 01:52:00,
2013-11-18 20:12:00,37.0,29.0,30.24,NW,304,4.0,11.0,74,0.00,,,0.00,,2013-11-19 02:12:00,
2013-11-18 20:22:00,36.0,29.0,30.24,WNW,294,4.0,9.0,75,0.00,,,0.00,,2013-11-19 02:22:00,
2013-11-18 20:42:00,36.0,29.0,30.24,NW,312,4.0,7.0,76,0.00,,,0.00,,2013-11-19 02:42:00,
2013-11-18 20:52:00,36.0,29.0,30.25,WNW,295,5.0,10.0,77,0.00,,,0.00,,2013-11-19 02:52:00,
2013-11-18 21:11:00,35.0,29.0,30.26,WNW,296,4.0,6.0,78,0.00,,,0.00,,2013-11-19 03:11:00,
2013-11-18 21:21:00,35.0,29.0,30.25,WNW,300,5.0,8.0,79,0.00,,,0.00,,2013-11-19 03:21:00,
2013-11-18 21:43:00,35.0,29.0,30.26,WNW,283,4.0,8.0,78,0.00,,,0.00,,2013-11-19 03:43:00,
2013-11-18 21:54:00,35.0,29.0,30.27,WNW,297,3.0,7.0,80,0.00,,,0.00,,2013-11-19 03:54:00,
2013-11-18 22:13:00,34.0,29.0,30.27,NW,322,3.0,6.0,81,0.00,,,0.00,,2013-11-19 04:13:00,
2013-11-18 22:23:00,34.0,29.0,30.27,NW,306,3.0,6.0,81,0.00,,,0.00,,2013-11-19 04:23:00,
2013-11-18 22:42:00,34.0,29.0,30.27,NW,311,4.0,9.0,82,0.00,,,0.00,,2013-11-19 04:42:00,
2013-11-18 22:52:00,34.0,29.0,30.28,NW,318,3.0,9.0,82,0.00,,,0.00,,2013-11-19 04:52:00,
2013-11-18 23:12:00,33.0,28.0,30.28,NW,320,3.0,6.0,83,0.00,,,0.00,,2013-11-19 05:12:00,
2013-11-18 23:22:00,33.0,28.0,30.28,NW,313,3.0,6.0,83,0.00,,,0.00,,2013-11-19 05:22:00,
2013-11-18 23:43:00,33.0,28.0,30.28,NNW,330,4.0,7.0,82,0.00,,,0.00,,2013-11-19 05:43:00,
2013-11-18 23:53:00,33.0,28.0,30.29,NW,317,3.0,6.0,83,0.00,,,0.00,,2013-11-19 05:53:00,